Погода Завитая

Погода Завитая : погода сейчас, прогноз погоды и архив. Всё, что Вы хотите узнать о погоде Завитая!

Поиск расширенной информации на нашем сайте:

Другие новости

Новости СМИ2

Главная страница сайта

Новости сайта

03.07.2017

Напоминаем, что на нашем специализированном сайте Метеоцентр.Азия вы можете получить высокодетализированные автоматические прогнозы погоды по пунктам России, СНГ и мира в авиационном формате (включающие направление и скорость ветра, видимость, явления погоды, количество и форму облачности, нижнюю и верхнюю границу облачности).

Рекомендуем: Преимущества использования технической соли для дорог vosopttorg.com.

Погода Завитая - сегодня

Время (UTC), дата Ветер
(°,м/с) 
Видим.   Явления Облачность Т
(°С)
Тd
(°С)
f(%) Тe
(°С)
Pmin
(гПа)
dP
(гПа)
Po
(мм)
O2
(г/м3)
Тmin Tmax R s Состояние
почвы
03 20.07.17 290 (З) 20000 м    1/0 верхняя 
[Ci fib]
+23.1 +10.8 46 +26  1003.5  -0.2  732  270           
06 20.07.17 310 (СЗ) 20000 м    4/3 600 м средняя, верхняя 
[Cu hum|Ac trans|Ci fib]
+24.3 +7.9 35 +24  1003.1  -0.3  732  270           
09 20.07.17 330 (СЗ) 20000 м    3/1 600 м верхняя 
[Cu hum|Ci fib]
+23.7 +8.5 38 +24  1003.6  0.4  732  270           
12 20.07.17 230 (ЮЗ) 20000 м    ясно 
+16.8 +11.9 73 +22  1005  0.7  733  276    +24.5       
15 20.07.17 270 (З) 20000 м    ясно 
+13.2 +10.4 83 +16  1005.8  0.5  733  280           
18 20.07.17 240 (ЮЗ) 20000 м    ясно 
+10.2 +8.5 89 +11  1006.5  0.3  734  283           
21 20.07.17 260 (З) 20000 м    ясно 
+11.2 +9.8 91 +13  1007  0.7  734  282           
00 21.07.17 360 (С) 20000 м    ясно 
+20 +12.5 62 +25  1007.3  1.1  735  273  +9.1        сухая 
03 21.07.17 350 (С) 20000 м    ясно 
+23.8 +10.5 43 +26  1007.5  0.5  735  271           
06 21.07.17 330 (СЗ) 20000 м    1/1 600 м 
[Cu hum]
+25 +11.1 42 +28  1007.6  0.3  735  269           
09 21.07.17 320 (СЗ) 20000 м    ясно 
+24.7 +10.6 41 +27  1008.1  0.4  736  270           
12 21.07.17 200 (Ю) 20000 м    ясно 
+17.3 +14.4 83 +27  1009.3  0.5  736  276    +25.4       
15 21.07.17 190 (Ю) 20000 м    ясно 
+14.1 +12.3 89 +20  1010.2  0.6  737  280           
18 21.07.17 230 (ЮЗ) 20000 м    1/0 верхняя 
[Ci fib]
+15.2 +11.2 77 +20  1010.1  737  279           
21 21.07.17 180 (Ю) 20000 м    6/0 средняя, верхняя 
[Ac trans|Ci fib]
+16.1 +12.1 77 +21  1009.7  -0.3  736  278           
00 22.07.17 200 (Ю) 20000 м    10/10 600 м кучево-дожд. 
[Cb calv]
+18.8 +14 74 +27  1009.5  0.1  736  275  +14.1        сухая 
03 22.07.17 230 (ЮЗ) 4000 м  слаб. ливневой дождь  10/10 600 м кучево-дожд. 
[Cb calv]
+19.2 +14 72 +27  1009.2  -0.3  736  274           
06 22.07.17 150 (ЮВ) 4000 м  слаб. ливневой дождь  10/10 600 м кучево-дожд. 
[Cb calv]
+17.4 +15 86 +27  1006.4  -2.9  734  275           
09 22.07.17 150 (ЮВ) 3{10}  20000 м  гроза без осадков{ливн. осадки}  8/6 600 м кучево-дожд., средняя 
[Cb calv|Ac trans]
+19.4 +15.7 79 +31  1004.5  -1.7  733  272           
12 22.07.17 170 (Ю) 4000 м  гроза, ливневой дождь  10/10 600 м кучево-дожд. 
[Cb calv]
+16.2 +13.1 82 +23  1004.1  -0.6  732  276    +20.9     
15 22.07.17 170 (Ю) 20000 м  в посл. час гроза{ливн. осадки}  6/3 1000 м средняя 
[Sc|Ac trans]
+16.7 +13.5 81 +24  1003  -1.1  731  275           
18 22.07.17 180 (Ю) 20000 м  {гроза, ливн. осадки}  4/3 1000 м средняя, верхняя 
[Sc|Ac trans|Ci fib]
+15.3 +12.6 84 +21  1002.7  -0.4  731  276           
21 22.07.17 190 (Ю) 20000 м    3/0 верхняя 
[Ci fib]
+14.4 +12.6 89 +21  1001.6  -1.2  730  277           
00 23.07.17 230 (ЮЗ) 20000 м    6/4 600 м кучево-дожд., верхняя 
[Cb calv|Ci fib]
+19.2 +14.7 75 +29  1001.1  730  272  +14    0.7    влажная 
03 23.07.17 290 (З) 20000 м    9/4 600 м верхняя 
[Cu hum|Ci fib]
+21.6 +15.2 67 +31  1000.3  -0.5  730  269           
Время (UTC), дата Ветер
(°,м/с) 
Видим.   Явления Облачность Т
(°С)
Тd
(°С)
f(%) Тe
(°С)
Pmin
(гПа)
dP
(гПа)
Po
(мм)
O2
(г/м3)
Тmin Tmax R s Состояние
почвы

Для получения пояснительной информации подведите курсор к названию столбца.

ПОГОДА Завитая - архив

Всё, что Вы хотите узнать о погоде Завитая - удобно и подробно!

Выберите нужную дату (начиная с 1 января 2015* года) и нажмите кнопку "Найти".
Будут отображены архивные сводки погоды по пункту Завитая, начиная с указанной даты.


Отображать данные в формате CSV (для использования в таблицах Excel)


Внимание! Наш архив погоды предназначен исключительно для личного некоммерческого использования в познавательных целях. Если Вам необходимы официальные справки о состоянии погоды (для производственных, юридических, коммерческих и т.п. целей), обращайтесь в органы Росгидромета.

*Примечание: данная дата относится к архиву по метеостанциям СССР (Россия, СНГ, Балтия).
Архив по метеостанциям Зарубежной Европы и Азии (кроме Китая) хранится 10 дней, по другим регионам земного шара (Китай, Африка, Америка, Австралия, Океания) - 1 день.

Завитая - район местоположения метеостанции


Название, широта, долгота, высота метеостанции:
Завитая 50.1°ш. 129.5°д. 241 м над ур. моря [Российская Федерация]

Дополнительная информация

В oтличие oт бoльшинства пoгoдных сайтoв мы публикуем пoдрoбную метеoинфoрмацию в детальнoм прoфессиoнальнoм фoрмате.

Характеристики температуры и влажнoсти вoздуха измеряются на высoте 2 м в тени вдали oт зданий и деревьев.
Скoрoсть ветра измеряется на высoте 10 м (на урoвне рoста челoвека скoрoсть ветра ниже в 1.5-2 раза). Если метеoстанция нахoдится в гoрoде или в лесу, тo скoрoсть ветра занижена на 2-4 м/с пo сравнению с oткрытым местoм. Скoрoсть ветра над акватoриями крупных рек и oзёр, а также на вершинах хoлмoв на 2-5 м/с выше, чем в oбычных услoвиях.
Атмoсфернoе давление в разных тoчках местнoсти мoжет значительнo oтличаться oт давления на метеoстанции, в зависимoсти oт услoвий рельефа (при пoдъёме на 10 м давление пoнижается примернo на 1 мм рт.ст.).